Regional Weather Roundup
Issued by NWS

Home | Current Version | Previous Version | Graphics & Text | Print | Product List | Glossary On
Versions: 1 2 3 4 5 6 7 8 9 10 11 12 13 14 15 16 17 18 19 20 21 22 23 24 25 26 27 28 29 30 31 32 33 34 35 36 37 38 39 40 41 42 43 44 45 46 47 48 49 50
877
ASUS45 KBOU 291207
RWRCO

WEATHER ROUNDUP FOR COLORADO
NATIONAL WEATHER SERVICE DENVER/BOULDER CO
600 AM MDT SAT APR 29 2017

NOTE: "FAIR" INDICATES FEW OR NO CLOUDS BELOW 12000 FEET WITH NO
SIGNIFICANT WEATHER AND/OR OBSTRUCTIONS TO VISIBILITY.

COZ001>005-013-030-031-291300-
...NORTHWEST COLORADO...

CITY           SKY/WX    TMP DP  RH WIND       PRES   REMARKS
CRAIG          CLOUDY    32  18  56 E8        29.99R WCI  25
HAYDEN         FAIR      30  14  51 E8        29.99R WCI  23
MEEKER         MOCLDY    32  22  66 NE15G22   29.95R WCI  22
MOUNT WERNER   NOT AVBL
STEAMBOAT SPGS CLOUDY    29  18  63 N3        29.98R
WALDEN           N/A     21  12  68 NE13      30.02R WCI   9
$$

COZ006>008-011-291300-
...WEST CENTRAL VALLEYS...

CITY           SKY/WX    TMP DP  RH WIND       PRES   REMARKS
GRAND JUNCTION CLOUDY    39  32  76 CALM      29.91R
MONTROSE       CLOUDY    32  32 100 CALM      29.93R
EAGLE          FAIR      28  15  58 CALM      29.99R
RIFLE          FAIR      34  28  79 CALM      29.93R
DELTA          LGT SNOW  35  34  95 CALM      29.92R
NUCLA          CLOUDY    34  30  86 CALM      29.92R
$$

COZ017>023-064>068-291300-
...SOUTHWEST COLORADO...

CITY           SKY/WX    TMP DP  RH WIND       PRES   REMARKS
DURANGO        CLOUDY    28  23  81 VRB5      29.82S WCI  23
CORTEZ         FAIR      25  24  96 NE7       29.85F WCI  17
PAGOSA SPRINGS LGT SNOW  28  27  96 CALM      29.84S
TELLURIDE      LGT SNOW  23  22  96 S6        29.87R WCI  16
WOLF CREEK PAS LGT SNOW  10  10 100 N13       29.86F VSB 3/4 WCI  -5
$$

COZ009-010-012-014-032>034-037-058>063-291300-
...CENTRAL COLORADO...

CITY           SKY/WX    TMP DP  RH WIND       PRES   REMARKS
ASPEN          FAIR      21  14  74 S5        29.91R WCI  15
BUENA VISTA    LGT SNOW  23  19  87 W3        30.01R
COPPER MTN     FAIR      12   3  67 MISG      29.91R
BERTHOUD PASS  SNOW       3  -8  60 E30G47    29.91S VSB 1/2 WCI -21
COTTONWOOD PAS LGT SNOW  19  18  93 E3        29.98R
GUNNISON       FAIR      27  14  58 E10       29.90R WCI  17
KREMMLING      CLOUDY    30  19  64 NE6       30.01R WCI  24
LEADVILLE      FAIR      12   9  87 S9        29.94R WCI   0
MONARCH PASS   CLOUDY     9   5  85 E39G47    29.93R WCI -17
SALIDA         CLOUDY    26  22  85 CALM      30.09R
SUNLIGHT       CLOUDY    12  10  92 NE8       29.92R WCI   1
WILKERSON PASS CLOUDY   N/A N/A N/A NE7       29.96R
$$

COZ069>075-291300-
...SAN LUIS VALLEY/SANGRE DE CRISTO MOUNTAINS...

CITY           SKY/WX    TMP DP  RH WIND       PRES   REMARKS
ALAMOSA        CLOUDY    29  18  63 NE10G24   29.82F WCI  20
LA VETA PASS   HVY SNOW  16  12  86 N29       29.99F VSB<1/4 WCI  -4
SAGUACHE       CLOUDY    30  10  43 NE8G20    29.88S WCI  23
$$

COZ035-036-038>040-291300-
...NORTHERN COLORADO FRONT RANGE...

CITY           SKY/WX    TMP DP  RH WIND       PRES   REMARKS
DENVER INTL AP LGT SNOW  29  27  92 N14       30.10R FOG     WCI  18
DMNS CITY PARK   N/A     29  29  99 N13       30.12R WCI  19
AURORA         FLURRIES  28  28  99 N14       30.10R WCI  17
FRONT RANGE AP MIX PCPN  32  30  93 N14       30.10R WCI  22
ERIE MUNI ARPT MIX PCPN  31  30  96 N10       30.13R WCI  22
BOULDER MUN AP LGT SNOW  30  30 100 NW7       30.13R WCI  23
CENTENNIAL     LGT SNOW  27  27 100 N12       30.08R FOG     WCI  17
BROOMFIELD     LGT SNOW  30  30 100 N13       30.11R WCI  20
FORT COLLINS   MIX PCPN  31  28  89 N6        30.15R WCI  25
LONGMONT       LGT SNOW  33  31  94 N9        30.16R WCI  25
$$

COZ041-046-047-076>085-087-088-291300-
...PIKES PEAK/PALMER DIVIDE AND SOUTHERN FOOTHILLS...

CITY           SKY/WX    TMP DP  RH WIND       PRES   REMARKS
COLO. SPRINGS  CLOUDY    30  23  75 N9        30.08R WCI  22
A. F. ACADEMY  LGT SNOW  25  23  93 NW10      30.05R FOG     WCI  15
SCHRIEVER AFB  LGT SNOW  26  24  91 N15       30.07R WCI  14
ELLICOTT       LGT SNOW N/A N/A N/A NE20G30   30.04R
FALCON         LGT SNOW  25  23  91 N18G24    30.05R WCI  12
FORT CARSON    FLURRIES  29  24  80 N23G29    30.06R WCI  16
LIMON          CLOUDY    28  26  92 N20G28    30.05R WCI  15
MONUMENT HILL  CLOUDY    23  21  93 NE17G23   30.06R WCI   9
TRINIDAD       LGT SNOW  28  26  92 N17       30.02F VSB 3/4 WCI  16
$$

COZ042>045-048>051-090-091-291300-
...NORTHEAST COLORADO...

CITY           SKY/WX    TMP DP  RH WIND       PRES   REMARKS
GREELEY ARPT   LGT RAIN  33  29  85 N13       30.16  WCI  24
AKRON          CLOUDY    31  28  89 N14       30.10R WCI  21
BURLINGTON     NOT AVBL
WRAY           NOT AVBL
STERLING       CLOUDY    34  32  93 N9        30.12R WCI  26
HOLYOKE        CLOUDY    37  32  81 N10       30.12S
FORT MORGAN    CLOUDY    32  30  92 N13       30.13R WCI  22
$$

COZ086-089-092>099-291300-
...SOUTHEAST COLORADO...

CITY           SKY/WX    TMP DP  RH WIND       PRES   REMARKS
PUEBLO           N/A    N/A N/A N/A MISG      30.09R
LA JUNTA       SNOW      33  31  92 N13       30.07R VSB 1/2 WCI  24
LAMAR          SNOW      33  31  92 NE17G23   30.02R VSB 1/2 WCI  22
SPRINGFIELD      N/A     30  29  96 N22       29.94F WCI  17
$$




USA.gov is the U.S. government's official web portal to all federal, state and local government web resources and services.